Location: El Escondido
(32.5111°N, 116.6697°W)
Time: 15:38:43
(UTC+00:00)

CZ-3C R/B - Pass Details

Date: 03 August 2024
Orbit: 267 x 32386 km, 20.6° (Epoch: 08 September)

Event Time Altitude Azimuth Distance (km) Brightness Sun altitude
Exits shadow 11:07:57 28° 203° (SSW) 2,601 3.7 -21.8°
Maximum altitude 11:12:40 45° 149° (SSE) 3,251 4.5 -21.0°
Drops below altitude 10° 19:08:52 10° 131° (SE) 20,777 9.2 71.8°
Sets 19:30:15 0° 128° (SE) 17,509 8.6 73.9°
